VE3ZEB-1 Weather Reports


time (UTC)temp
C
wind
direction
speed
KPH
gust
KPH
rain 1hr
cm
rain 24hr
cm
rain mn
cm
humidity
%
barometer
mb
20260506051030 8 207 4.8 8.0 0.00 0.13 0.00 97 679.4
20260506045030 8 202 6.4 8.0 0.00 0.13 0.00 97 679.4
20260506044031 8 216 4.8 6.4 0.00 0.13 0.00 97 679.4
20260506043030 8 203 4.8 9.7 0.00 0.13 0.00 97 679.4
20260506042030 8 188 12.9 19.3 0.00 0.13 0.00 95 679.4
20260506041031 8 199 9.7 12.9 0.00 0.13 0.00 95 679.4
20260506040031 8 174 8.0 11.3 0.00 0.13 0.00 95 679.4
20260506035031 8 193 6.4 9.7 0.00 0.13 0.13 94 679.4
20260506034031 8 177 8.0 12.9 0.00 0.13 0.13 94 679.4
20260506033051 8 188 8.0 11.3 0.00 0.13 0.13 94 679.4
20260506032057 8 194 8.0 12.9 0.00 0.13 0.13 93 679.4
20260506031112 8 198 4.8 8.0 0.00 0.13 0.13 93 679.4
20260506030052 8 177 6.4 8.0 0.00 0.13 0.13 93 679.4
20260506025052 8 186 6.4 8.0 0.00 0.13 0.13 93 679.4
20260506024052 8 179 8.0 11.3 0.00 0.13 0.13 92 679.4
20260506023032 8 187 6.4 11.3 0.00 0.13 0.13 91 679.4
20260506022032 8 179 6.4 11.3 0.00 0.13 0.13 90 679.4
20260506021032 8 180 4.8 6.4 0.00 0.13 0.13 88 679.4
20260506020033 8 178 4.8 6.4 0.00 0.13 0.13 88 679.4
20260506015033 9 188 4.8 6.4 0.00 0.15 0.13 87 679.4
20260506014033 8 190 4.8 6.4 0.00 0.15 0.13 87 679.4
20260506013018 9 164 3.2 4.8 0.00 0.15 0.13 87 679.4
20260506012038 9 172 4.8 4.8 0.00 0.15 0.13 86 679.4
20260506011018 9 159 3.2 4.8 0.00 0.15 0.13 86 679.5
20260506010059 9 173 3.2 3.2 0.00 0.15 0.13 85 679.5
20260506005018 9 153 3.2 4.8 0.00 0.15 0.13 84 679.5
20260506004039 9 155 3.2 4.8 0.00 0.15 0.13 85 679.5
20260506003019 9 159 3.2 4.8 0.00 0.15 0.13 83 679.5
20260506002019 10 164 3.2 3.2 0.00 0.15 0.13 83 679.5
20260506001019 10 159 3.2 6.4 0.00 0.15 0.13 83 679.5
20260506000019 10 162 3.2 4.8 0.00 0.15 0.13 77 679.5
20260505235019 10 158 1.6 3.2 0.00 0.15 0.13 76 679.5
20260505234019 10 153 1.6 3.2 0.00 0.15 0.13 76 679.5
20260505233020 10 160 1.6 3.2 0.00 0.15 0.13 76 679.5
20260505232020 10 176 3.2 3.2 0.00 0.15 0.13 76 679.5
20260505231020 10 187 1.6 3.2 0.00 0.15 0.13 76 679.5
20260505230020 10 196 4.8 6.4 0.00 0.15 0.13 76 679.5
20260505225020 10 207 3.2 3.2 0.00 0.15 0.13 76 679.5
20260505224020 10 202 1.6 3.2 0.00 0.15 0.13 76 679.5
20260505223020 10 181 3.2 4.8 0.00 0.15 0.13 76 679.5
20260505222020 10 177 3.2 3.2 0.00 0.15 0.13 76 679.5
20260505221021 10 214 3.2 4.8 0.00 0.15 0.13 76 679.5
20260505220021 10 213 3.2 4.8 0.00 0.15 0.13 76 679.5
20260505215021 10 57 0.0 1.6 0.00 0.15 0.13 74 679.5
20260505214021 10 0.0 0.0 0.00 0.15 0.13 75 679.5
20260505213021 10 333 0.0 1.6 0.00 0.15 0.13 75 679.5
20260505212021 10 0.0 0.0 0.00 0.15 0.13 74 679.5
20260505211021 10 200 0.0 1.6 0.00 0.15 0.13 75 679.5
20260505210022 10 335 1.6 4.8 0.00 0.15 0.13 74 679.5
20260505205022 10 279 0.0 1.6 0.00 0.15 0.13 75 679.5
20260505204102 10 325 1.6 4.8 0.00 0.15 0.13 75 679.5
20260505203021 10 331 1.6 3.2 0.00 0.15 0.13 74 679.5
20260505202022 10 333 3.2 4.8 0.00 0.15 0.13 74 679.5
20260505201043 10 330 3.2 4.8 0.00 0.15 0.13 74 679.5
20260505200204 11 335 3.2 8.0 0.00 0.15 0.13 74 679.5
20260505195022 11 326 4.8 8.0 0.03 0.15 0.13 74 679.5
20260505194023 11 318 3.2 8.0 0.03 0.15 0.13 73 679.6
20260505193023 11 327 3.2 4.8 0.05 0.15 0.13 74 679.6
20260505192022 11 244 1.6 4.8 0.05 0.15 0.13 72 679.6
20260505191023 11 269 0.0 3.2 0.08 0.15 0.13 72 679.6
20260505190043 11 242 0.0 1.6 0.10 0.15 0.10 71 679.6
20260505185023 12 236 1.6 3.2 0.08 0.13 0.08 69 679.6
20260505184024 12 226 1.6 4.8 0.08 0.13 0.08 69 679.6
20260505183023 12 310 0.0 3.2 0.08 0.10 0.08 65 679.6
20260505182024 13 293 1.6 6.4 0.05 0.10 0.05 63 679.6
20260505181024 13 315 3.2 9.7 0.03 0.08 0.03 60 679.7
20260505180024 14 319 3.2 6.4 0.03 0.05 0.03 58 679.7
20260505175044 14 235 1.6 4.8 0.00 0.05 0.00 53 679.7
20260505174025 15 328 3.2 6.4 0.00 0.03 0.00 51 679.8
20260505173024 15 324 4.8 9.7 0.00 0.03 0.00 51 679.8
20260505172045 15 331 6.4 9.7 0.00 0.03 0.00 50 679.8
20260505171025 16 348 4.8 8.0 0.00 0.03 0.00 50 679.8
20260505170025 16 360 4.8 8.0 0.00 0.03 0.00 50 679.8
20260505165025 16 323 6.4 8.0 0.00 0.03 0.00 52 679.8
20260505164025 16 338 3.2 8.0 0.00 0.03 0.00 53 679.8
20260505163045 16 339 4.8 8.0 0.00 0.03 0.00 53 679.8
20260505162025 16 328 3.2 8.0 0.00 0.03 0.00 54 679.8
20260505161025 16 338 4.8 9.7 0.00 0.03 0.00 55 679.8
20260505153146 16 351 6.4 11.3 0.00 0.03 0.00 53 679.8
20260505152026 16 322 6.4 14.5 0.00 0.03 0.00 53 679.8
20260505151026 17 325 6.4 11.3 0.00 0.03 0.00 54 679.8
20260505125028 11 334 4.8 8.0 0.00 0.03 0.00 76 679.5
20260505124028 11 327 6.4 8.0 0.00 0.03 0.00 76 679.5
20260505123028 10 325 4.8 8.0 0.00 0.03 0.00 76 679.5
20260505122044 10 322 6.4 9.7 0.00 0.03 0.00 76 679.5
20260505121049 10 343 6.4 9.7 0.00 0.03 0.00 76 679.5
20260505120029 10 329 8.0 12.9 0.00 0.03 0.00 76 679.5
20260505115029 11 323 6.4 11.3 0.00 0.03 0.00 76 679.5
20260505114044 11 330 3.2 6.4 0.00 0.03 0.00 76 679.5
20260505113029 12 318 4.8 11.3 0.00 0.03 0.00 76 679.5
20260505112050 12 328 6.4 9.7 0.00 0.03 0.00 76 679.6
20260505111029 13 318 6.4 12.9 0.00 0.03 0.00 80 679.6
20260505102030 13 246 4.8 12.9 0.00 0.03 0.00 83 679.6
20260505101051 13 259 3.2 8.0 0.00 0.03 0.00 82 679.6
20260505100030 13 250 3.2 4.8 0.00 0.03 0.00 76 679.6
20260505095031 13 267 3.2 9.7 0.00 0.03 0.00 76 679.6
20260505094031 13 267 3.2 8.0 0.00 0.03 0.00 76 679.6
20260505093031 14 243 3.2 9.7 0.00 0.03 0.00 76 679.6
20260505092052 14 253 3.2 6.4 0.00 0.03 0.00 76 679.6
20260505091032 14 252 3.2 6.4 0.00 0.03 0.00 76 679.6
20260505090031 14 264 3.2 8.0 0.00 0.03 0.00 76 679.7
20260505085032 15 268 3.2 8.0 0.00 0.03 0.00 76 679.6
20260505084052 15 258 1.6 6.4 0.00 0.03 0.00 76 679.7
20260505083032 15 231 4.8 9.7 0.00 0.03 0.00 76 679.7
20260505082047 15 231 3.2 8.0 0.00 0.03 0.00 76 679.7
20260505081032 15 254 4.8 8.0 0.00 0.03 0.00 76 679.7
20260505080017 15 248 4.8 9.7 0.00 0.03 0.00 74 679.7
20260505075018 15 279 1.6 8.0 0.00 0.03 0.00 74 679.7
20260505074018 15 232 4.8 9.7 0.00 0.03 0.00 74 679.7
20260505073018 15 233 6.4 11.3 0.00 0.03 0.00 74 679.7
20260505072018 15 233 4.8 8.0 0.00 0.03 0.00 74 679.7
20260505071018 15 235 4.8 11.3 0.00 0.03 0.00 74 679.7
20260505070018 15 232 8.0 11.3 0.00 0.03 0.00 74 679.7
20260505065018 15 239 4.8 9.7 0.00 0.03 0.00 76 679.7
20260505064053 15 245 3.2 12.9 0.00 0.03 0.00 76 679.7
20260505063054 15 260 4.8 12.9 0.00 0.03 0.00 76 679.7
20260505062019 15 233 4.8 8.0 0.00 0.03 0.00 76 679.7
20260505061039 15 231 8.0 14.5 0.00 0.03 0.00 76 679.7